TimeCDT,TemperatureF,Dew PointF,Humidity,Sea Level PressureIn,VisibilityMPH,Wind Direction,Wind SpeedMPH,Gust SpeedMPH,PrecipitationIn,Events,Conditions,WindDirDegrees,DateUTC
12:55 AM,40.3,36.9,88,29.89,10.0,Calm,Calm,-,N/A,,Clear,0,2012-10-03 05:55:00
1:55 AM,40.5,37.9,91,29.90,10.0,Calm,Calm,-,N/A,,Clear,0,2012-10-03 06:55:00
2:55 AM,37.6,35.4,92,29.89,10.0,Calm,Calm,-,N/A,,Clear,0,2012-10-03 07:55:00
3:55 AM,37.4,36.0,95,29.89,10.0,Calm,Calm,-,N/A,,Clear,0,2012-10-03 08:55:00
4:55 AM,38.7,36.7,93,29.90,10.0,Calm,Calm,-,N/A,,Clear,0,2012-10-03 09:55:00
5:55 AM,36.0,34.5,94,29.91,10.0,Calm,Calm,-,N/A,,Clear,0,2012-10-03 10:55:00
6:55 AM,35.2,34.5,97,29.91,10.0,Calm,Calm,-,N/A,,Clear,0,2012-10-03 11:55:00
7:55 AM,36.9,36.1,97,29.93,10.0,Calm,Calm,-,N/A,,Clear,0,2012-10-03 12:55:00
8:55 AM,50.9,41.2,69,29.92,10.0,SSE,8.1,-,N/A,,Clear,150,2012-10-03 13:55:00
9:55 AM,58.6,40.5,51,29.91,10.0,SE,9.2,-,N/A,,Clear,130,2012-10-03 14:55:00
10:55 AM,67.6,40.6,37,29.89,10.0,SSE,9.2,-,N/A,,Clear,150,2012-10-03 15:55:00
11:55 AM,72.7,39.2,30,29.86,10.0,South,13.8,-,N/A,,Clear,170,2012-10-03 16:55:00
12:55 PM,77.0,39.2,26,29.84,10.0,South,19.6,24.2,N/A,,Clear,170,2012-10-03 17:55:00
1:55 PM,79.3,34.2,20,29.80,10.0,South,17.3,25.3,N/A,,Clear,170,2012-10-03 18:55:00
2:55 PM,80.4,35.1,19,29.79,10.0,South,17.3,25.3,N/A,,Clear,170,2012-10-03 19:55:00
3:55 PM,81.0,34.7,19,29.78,10.0,South,17.3,21.9,N/A,,Clear,170,2012-10-03 20:55:00
4:55 PM,80.4,34.3,19,29.77,10.0,SSE,12.7,-,N/A,,Clear,160,2012-10-03 21:55:00
5:55 PM,79.2,33.4,19,29.78,10.0,SSE,15.0,24.2,N/A,,Clear,160,2012-10-03 22:55:00
6:55 PM,73.8,37.2,27,29.81,10.0,SSE,9.2,-,N/A,,Scattered Clouds,150,2012-10-03 23:55:00
7:55 PM,69.1,39.2,34,29.83,9.0,SE,6.9,-,N/A,,Scattered Clouds,140,2012-10-04 00:55:00
8:55 PM,66.6,39.6,37,29.83,10.0,SE,9.2,-,N/A,,Clear,140,2012-10-04 01:55:00
9:55 PM,67.3,39.7,36,29.84,10.0,SE,10.4,-,N/A,,Clear,140,2012-10-04 02:55:00
10:55 PM,65.3,40.8,41,29.86,10.0,SSE,9.2,-,N/A,,Clear,150,2012-10-04 03:55:00
11:55 PM,63.7,41.9,45,29.89,10.0,West,16.1,-,N/A,,Clear,280,2012-10-04 04:55:00